Location: Balsareny
(41.8670°N, 1.8830°E)
Time: 14:47:22
(UTC+01:00)

Envisat - Pass Details

Date: 01 December 2021
Orbit: 764 x 766 km, 98.2° (Epoch: 19 January)

Event Time Altitude Azimuth Distance (km) Brightness Sun altitude
Rises 06:43:46 0° 3° (N) 3,242 6.1 -14.0°
Reaches altitude 10° 06:46:15 10° 355° (N) 2,311 5.3 -13.5°
Maximum altitude 06:50:47 34° 292° (WNW) 1,255 3.6 -12.7°
Drops below altitude 10° 06:55:17 10° 229° (SW) 2,296 5.2 -11.9°
Sets 06:57:45 0° 220° (SW) 3,217 6.0 -11.5°
